Location: Cudham
(51.3000°N, 0.0667°E)
Time: 15:01:50
(UTC+00:00)

Landsat 5 - Pass Details

Date: 19 May 2025
Orbit: 510 x 610 km, 98.1° (Epoch: 17 June)

Event Time Altitude Azimuth Distance (km) Brightness Sun altitude
Rises 23:28:00 0° 12° (NNE) 2,809 8.3 -18.4°
Reaches altitude 10° 23:30:09 10° 9° (N) 1,919 7.2 -18.5°
Maximum altitude 23:34:17 64° 288° (WNW) 664 3.7 -18.5°
Enters shadow 23:36:03 33° 218° (SW) 1,025 4.3 -18.6°
